Change the Weather History Date:

Saturday, August 11, 2012

  Actual Average Record
Temperature  
Mean Temperature 72 °F 78 °F  
Max Temperature 90 °F 89 °F 110 °F (1934)
Min Temperature 54 °F 67 °F 51 °F (2004)
Degree Days  
Heating Degree Days 0 0  
Month to date heating degree days 0 0  
Since 1 June heating degree days 9 8  
Since 1 July heating degree days 0 0  
Cooling Degree Days 7 13  
Month to date cooling degree days 172 152  
Year to date cooling degree days 1594 994  
Since 1 June cooling degree days 1276 868  
Growing Degree Days 22 (Base 50)    
Moisture  
Dew Point 52 °F    
Average Humidity 58    
Maximum Humidity 93    
Minimum Humidity 23    
Precipitation  
Precipitation T in 0.13 in 2.09 in (1941)
Month to date precipitation 0.39 1.47  
Year to date precipitation 15.67 23.80  
Snow  
Snow 0.00 in 0.00 in 0.00 in ()
Month to date snowfall 0.0 0.0  
Year to date snowfall 3.0 11.3  
Since 1 July snowfall 0.0 0.0  
Snow Depth 0.00 in    
Sea Level Pressure  
Sea Level Pressure 30.00 in    
Wind  
Wind Speed 3 mph (ESE)    
Max Wind Speed 12 mph    
Max Gust Speed 16 mph    
Visibility 10 miles    
Events      
T = Trace of Precipitation, MM = Missing Value Source: NWS Daily Summary

Daily Weather History Graph

Daily Weather History Graph

Search for Another Location

Airport or City:

Trip Planner

Search our weather history database for the weather conditions in past years. The results will help you decide how hot, cold, wet, or windy it might be!

Date:

Astronomy

Aug. 11, 2012 Rise Set
Actual Time 6:32 AM CDT 8:21 PM CDT
Civil Twilight 6:03 AM CDT 8:50 PM CDT
Nautical Twilight 5:28 AM CDT 9:25 PM CDT
Astronomical Twilight 4:51 AM CDT 10:02 PM CDT
Moon 1:02 AM CDT (8/11) 3:56 PM CDT (8/11)
Length of Visible Light 14h 47m
Length of Day
13h 49m
Waning Crescent, 32% of the Moon is Illuminated
Aug 11
Waning Crescent
Aug 17
New
Aug 24
First Quarter
Aug 31
Full
Sep 8
Last Quarter

Hourly Weather History & Observations

Time (CDT) Temp. Heat Index Dew Point Humidity Pressure Visibility Wind Dir Wind Speed Gust Speed Precip Events Conditions
12:53 AM 64.9 °F - 54.0 °F 68% 30.05 in 10.0 mi NE 3.5 mph - N/A   Clear
1:53 AM 62.1 °F - 54.0 °F 75% 30.05 in 10.0 mi Calm Calm - N/A   Clear
2:53 AM 59.0 °F - 54.0 °F 83% 30.05 in 10.0 mi Calm Calm - N/A   Clear
3:53 AM 59.0 °F - 54.0 °F 83% 30.05 in 10.0 mi Calm Calm - N/A   Clear
4:53 AM 57.9 °F - 53.1 °F 84% 30.05 in 10.0 mi Calm Calm - N/A   Clear
5:53 AM 55.9 °F - 53.1 °F 90% 30.06 in 10.0 mi Calm Calm - N/A   Clear
6:53 AM 57.0 °F - 54.0 °F 89% 30.07 in 10.0 mi Calm Calm - N/A   Clear
7:53 AM 60.1 °F - 57.0 °F 90% 30.08 in 10.0 mi Calm Calm - N/A   Clear
8:53 AM 68.0 °F - 55.9 °F 65% 30.08 in 10.0 mi ENE 3.5 mph - N/A   Clear
9:53 AM 73.9 °F - 57.9 °F 57% 30.07 in 10.0 mi Calm Calm - N/A   Clear
10:53 AM 79.0 °F - 53.1 °F 40% 30.06 in 10.0 mi South 6.9 mph - N/A   Clear
11:53 AM 81.0 °F 80.4 °F 53.1 °F 38% 30.05 in 10.0 mi Calm Calm - N/A   Clear
12:53 PM 84.9 °F - 52.0 °F 32% 30.02 in 10.0 mi SSE 9.2 mph - N/A   Clear
1:53 PM 86.0 °F - 50.0 °F 29% 30.00 in 10.0 mi North 4.6 mph - N/A   Clear
2:53 PM 86.0 °F - 48.0 °F 27% 29.97 in 10.0 mi SE 4.6 mph - N/A   Clear
3:53 PM 88.0 °F - 46.9 °F 24% 29.94 in 10.0 mi Calm Calm - N/A   Clear
4:53 PM 89.1 °F - 46.9 °F 23% 29.93 in 10.0 mi SSE 8.1 mph - N/A   Clear
5:53 PM 89.1 °F - 46.9 °F 23% 29.91 in 10.0 mi ESE 6.9 mph - N/A   Clear
6:53 PM 87.1 °F - 48.0 °F 26% 29.90 in 10.0 mi ESE 6.9 mph - N/A   Clear
7:53 PM 82.9 °F - 48.9 °F 31% 29.91 in 10.0 mi ESE 4.6 mph - N/A   Clear
8:53 PM 81.0 °F - 51.1 °F 35% 29.92 in 10.0 mi SE 3.5 mph - N/A   Clear
9:53 PM 78.1 °F - 55.9 °F 46% 29.94 in 10.0 mi Calm Calm - N/A   Mostly Cloudy
10:53 PM 77.0 °F - 57.9 °F 52% 29.95 in 10.0 mi ESE 5.8 mph - 0.00 in   Mostly Cloudy
11:53 PM 75.0 °F - 55.9 °F 51% 29.94 in 10.0 mi Calm Calm - N/A   Clear